[[{"header":{"parameterUnit":"m.s-1","parameterCategory":1,"la1":30.2991,"la2":30.254,"lo1":-89.0895,"lo2":-89.0444,"dy":0.0017,"dx":0.0017,"nx":28,"ny":28,"refTime":"2024-05-31T03:00:00:Z","depth":0,"parameterNumber":2,"parameterNumberName":"U-component_of_WINDS"},"data":[0,0,0,0,0,0,0,0,0,0,0,0,0,0,0,0,0,0,0,0,0,0,0,0,0,0,0,0,0,0,0,0,0,0,0,0,0,0,0,0,0,0,0,0,0,0,0,0,0,0,0,0,0,0,0,0,0,0,-3.9714,-3.9715,0,-3.9771,-3.9772,-3.9772,-3.9749,-3.9748,-3.9747,-3.9746,-3.9804,-3.9806,-3.9809,0,0,0,0,0,0,0,0,0,0,0,0,0,-3.9586,-3.9589,-3.9714,-3.9715,-3.9716,-3.9771,-3.9772,-3.9772,-3.975,-3.9748,-3.9746,-3.9745,-3.9803,-3.9806,-3.9809,0,0,0,0,0,0,0,0,0,0,0,0,0,-3.9642,-3.959,-3.9714,-3.9711,-3.9711,-3.9771,-3.9772,-3.9773,-3.975,-3.9748,-3.9746,-3.9744,-3.9802,-3.9806,-3.981,-3.9876,0,0,-3.9822,-3.9824,0,0,0,0,0,0,0,0,-3.9639,-3.9647,-3.9711,-3.9711,-3.9712,-3.9751,-3.9748,-3.9807,-3.9751,-3.9735,-3.9745,-3.9743,-3.9788,-3.9793,-3.9808,-3.9878,-3.9881,-3.9823,-3.9825,-3.9827,-3.9828,0,0,0,0,0,0,0,-3.9635,-3.9645,-3.9737,-3.9712,-3.9712,-3.9707,-3.9713,-3.9759,-3.9772,-3.9736,-3.9735,-3.9742,-3.9788,-3.9804,-3.9809,-3.9882,-3.9823,-3.9826,-3.9829,-3.9831,-4.0009,-4.0011,0,0,0,0,0,0,-3.9631,-3.9642,-3.9735,-3.9738,-3.967,-3.9711,-3.9717,-3.974,-3.9771,-3.9774,-3.9744,-3.9741,-3.9798,-3.9804,-3.9811,-3.989,-3.9827,-3.9831,-3.9833,-4.0007,-4.0009,-4.0012,0,0,0,0,0,0,-3.9629,-3.964,-3.9733,-3.969,-3.9701,-3.9715,-3.9741,-3.9743,-3.9759,-3.9777,-3.9779,-3.9758,-3.9796,-3.9805,-3.986,-3.9891,-3.9833,-3.9837,-4.0004,-4.0008,-4.0011,-4.0048,0,0,0,0,0,0,-3.9625,-3.9639,-3.9664,-3.969,-3.9703,-3.978,-3.9743,-3.9745,-3.9766,-3.9763,-3.9791,-3.9794,-3.9796,-3.9854,-3.9864,-3.9896,-3.984,-4.0001,-4.0006,-4.001,-4.0044,-4.0052,-4.0059,0,0,0,0,0,-3.9621,-3.9672,-3.9666,-3.9677,-3.9735,-3.9782,-3.9789,-3.9791,-3.9769,-3.9794,-3.9806,-3.9793,-3.9887,-3.9859,-3.9871,-3.9905,-3.9999,-4.0004,-4.0009,-4.004,-4.005,-4.0059,0,0,0,0,0,0,-3.9649,-3.9676,-3.9668,-3.973,-3.9754,-3.9778,-3.981,-3.9801,-3.9832,-3.9828,-3.9828,-3.9835,-3.9891,-3.9903,-3.9872,-3.997,-3.994,-3.9947,-3.9959,-3.9969,-3.9976,-3.9971,-3.9844,0,0,0,0,0,-3.9663,-3.9699,-3.972,-3.9773,-3.9785,-3.9796,-3.9816,-3.9815,-3.984,-3.985,-3.9865,-3.989,-3.9925,-3.9948,-3.9981,-4.0046,-4.0052,-4.0075,-4.0083,-4.0089,-4.0095,-4.013,-4.014,-4.0028,-4.0028,-4.0028,0,0,-3.9691,-3.971,-3.9733,-3.9779,-3.9797,-3.9834,-3.9804,-3.9845,-3.9872,-3.9856,-3.9908,-3.9921,-3.9948,-4.0008,-4.0035,-4.002,-4.0127,-4.0095,-4.01,-4.0103,-4.0136,-4.0147,-4.0156,-4.0032,-4.0031,-4.0031,0,0,-3.9761,-3.9779,-3.9825,-3.9844,-3.9872,-3.9879,-3.989,-3.9916,-3.9924,-3.9976,-3.9965,-3.9998,-4.0058,-4.0078,-4.0096,-4.0175,-4.0164,-4.0186,-4.0225,-4.0259,-4.0268,-4.0276,-4.0303,-4.0313,-4.0192,-4.0193,-4.0193,0,-3.9792,-3.9848,-3.9849,-3.9891,-3.9911,-3.9899,-3.9945,-3.9963,-4.0001,-4.0016,-3.9999,-4.0075,-4.0092,-4.0156,-4.0176,-4.0191,-4.0203,-4.0182,-4.0267,-4.0274,-4.0282,-4.0308,-4.0318,-4.0195,-4.0195,-4.0194,-4.0194,0,-3.9884,-3.9923,-3.9956,-3.9993,-4.0018,-4.0061,-4.0069,-4.0094,-4.0092,-4.01,-4.0154,-4.0175,-4.0212,-4.0228,-4.0226,-4.0292,-4.0282,-4.0266,-4.0235,-4.0295,-4.0319,-4.0329,-4.0198,-4.0197,-4.0197,-4.0196,0,0,-3.9972,-4.001,-4.0022,-4.0038,-4.0069,-4.0099,-4.0143,-4.0179,-4.02,-4.0227,-4.0263,-4.0315,-4.0301,-4.0322,-4.0322,-4.0352,-4.0412,-4.0332,-4.0333,-4.0345,-4.0485,-4.0496,-4.0507,-4.0406,-4.0408,-4.0409,-4.0482,0,-4.0044,-4.0119,-4.0122,-4.0191,-4.0226,-4.0216,-4.0254,-4.0277,-4.0286,-4.0318,-4.0329,-4.0366,-4.0344,-4.0357,-4.0386,-4.0398,-4.044,-4.0393,-4.0438,-4.044,-4.043,-4.052,-4.0531,-4.0599,-4.0492,-4.0494,-4.0495,0,-4.0137,-4.0166,-4.0239,-4.0265,-4.028,-4.0313,-4.0347,-4.0378,-4.0404,-4.0409,-4.0433,-4.0429,-4.0473,-4.0442,-4.0503,-4.0472,-4.0491,-4.05,-4.0502,-4.0505,-4.047,-4.0524,-4.0621,-4.0631,-4.051,-4.0509,-4.0508,0,-4.0192,-4.025,-4.0301,-4.0316,-4.0348,-4.0372,-4.0386,-4.041,-4.0432,-4.0462,-4.0476,-4.0511,-4.0529,-4.0557,-4.0562,-4.0539,-4.0623,-4.0593,-4.0628,-4.0628,-4.0644,-4.0643,-4.0744,-4.0659,-4.0659,-4.0659,-4.0659,0,-4.027,-4.0315,-4.0326,-4.0357,-4.0407,-4.041,-4.0459,-4.0472,-4.0494,-4.0527,-4.0521,-4.0552,-4.0559,-4.0592,-4.0597,-4.0646,-4.0655,-4.066,-4.066,-4.0659,-4.0659,-4.067,-4.0665,-4.0662,-4.0661,-4.0661,-4.066,0,-4.034,-4.035,-4.0404,-4.043,-4.0437,-4.0473,-4.0495,-4.0525,-4.0534,-4.0576,-4.0587,-4.0601,-4.064,-4.0649,-4.0695,-4.0698,-4.0756,-4.0753,-4.0747,-4.0746,-4.078,-4.0776,-4.0892,-4.0907,-4.0813,-4.0814,-4.0815,0,-4.0389,-4.0422,-4.0452,-4.0474,-4.0489,-4.0525,-4.0547,-4.0552,-4.0576,-4.0608,-4.0634,-4.0672,-4.0702,-4.0764,-4.0779,-4.0814,-4.0811,-4.0849,-4.0816,-4.0814,-4.081,-4.0807,-4.081,-4.0854,-4.0856,-4.0856,-4.0857,0,-4.0474,-4.0477,-4.0509,-4.0543,-4.057,-4.0597,-4.0623,-4.0641,-4.065,-4.0677,-4.0716,-4.074,-4.0786,-4.0824,-4.0859,-4.0874,-4.0867,-4.0868,-4.0877,-4.0876,-4.0871,-4.0873,-4.0762,-4.0864,-4.0864,-4.0863,-4.0863,-4.0862,-4.0533,-4.0563,-4.0588,-4.0624,-4.0644,-4.0669,-4.0698,-4.0711,-4.0744,-4.0782,-4.0784,-4.0826,-4.0852,-4.0899,-4.0916,-4.0949,-4.0937,-4.0952,-4.0955,-4.0958,-4.0961,-4.0867,-4.0956,-4.0956,-4.0956,-4.0955,-4.0955,0,-4.0617,-4.0633,-4.0666,-4.0703,-4.0731,-4.0723,-4.0751,-4.0775,-4.0813,-4.0837,-4.0868,-4.0913,-4.0949,-4.0967,-4.1003,-4.1026,-4.1024,-4.1036,-4.1033,-4.1037,-4.097,-4.0957,-4.1037,-4.1037,-4.1037,-4.1037,-4.1037,-4.1037,-4.0664,-4.0713,-4.0719,-4.0778,-4.0794,-4.0835,-4.0852,-4.0875,-4.0894,-4.0945,-4.0975,-4.0987,-4.1009,-4.1047,-4.108,-4.1084,-4.1097,-4.111,-4.1113,-4.105,-4.1041,-4.1033,-4.1021,-4.1113,-4.1113,-4.1177,-4.1177,-4.1178]},{"header":{"parameterUnit":"m.s-1","parameterCategory":1,"la1":30.2991,"la2":30.254,"lo1":-89.0895,"lo2":-89.0444,"dy":0.0017,"dx":0.0017,"nx":28,"ny":28,"refTime":"2024-05-31T03:00:00:Z","depth":0,"parameterNumber":3,"parameterNumberName":"V-component_of_WINDS"},"data":[0,0,0,0,0,0,0,0,0,0,0,0,0,0,0,0,0,0,0,0,0,0,0,0,0,0,0,0,0,0,0,0,0,0,0,0,0,0,0,0,0,0,0,0,0,0,0,0,0,0,0,0,0,0,0,0,0,0,4.6281,4.628,0,4.6238,4.6238,4.6237,4.619,4.6189,4.6188,4.6188,4.6141,4.614,4.614,0,0,0,0,0,0,0,0,0,0,0,0,0,4.6318,4.6318,4.6281,4.628,4.628,4.6238,4.6238,4.6237,4.619,4.6189,4.6188,4.6187,4.6141,4.614,4.614,0,0,0,0,0,0,0,0,0,0,0,0,0,4.6291,4.6318,4.6281,4.6251,4.6248,4.6239,4.6238,4.6237,4.619,4.6189,4.6188,4.6187,4.6141,4.614,4.614,4.6155,0,0,4.6137,4.6136,0,0,0,0,0,0,0,0,4.6293,4.629,4.6256,4.6253,4.625,4.6218,4.6234,4.6209,4.619,4.6212,4.6188,4.6187,4.6167,4.6164,4.6158,4.6153,4.6151,4.6137,4.6136,4.6136,4.6136,0,0,0,0,0,0,0,4.6295,4.6292,4.6264,4.6256,4.6252,4.6239,4.6234,4.6229,4.6196,4.621,4.6207,4.6202,4.6165,4.6159,4.6157,4.615,4.6137,4.6136,4.6135,4.6135,4.6156,4.6157,0,0,0,0,0,0,4.6302,4.6294,4.6265,4.6263,4.6269,4.6239,4.6234,4.6229,4.6196,4.619,4.6203,4.62,4.6161,4.6158,4.6155,4.6172,4.6136,4.6135,4.6134,4.6155,4.6156,4.6157,0,0,0,0,0,0,4.6303,4.63,4.6267,4.6277,4.6272,4.624,4.6235,4.6229,4.6223,4.6191,4.6184,4.6204,4.616,4.6156,4.6156,4.617,4.6135,4.6134,4.6154,4.6155,4.6157,4.6205,0,0,0,0,0,0,4.6304,4.63,4.6306,4.6278,4.6272,4.6269,4.6236,4.6229,4.6222,4.6218,4.6189,4.6183,4.6159,4.6157,4.6155,4.6168,4.6133,4.6152,4.6154,4.6156,4.6202,4.6208,4.6213,0,0,0,0,0,4.6305,4.632,4.6307,4.6304,4.6279,4.627,4.6266,4.624,4.6224,4.6229,4.6208,4.6184,4.6169,4.6158,4.6155,4.6167,4.6151,4.6154,4.6156,4.62,4.6207,4.6213,0,0,0,0,0,0,4.635,4.6316,4.63,4.6307,4.6292,4.6262,4.6268,4.6248,4.6236,4.6233,4.6198,4.6192,4.6196,4.6181,4.617,4.6181,4.6156,4.6158,4.6191,4.6197,4.6203,4.6206,4.6132,0,0,0,0,0,4.6361,4.6357,4.6327,4.6336,4.6329,4.63,4.6295,4.6276,4.6259,4.6252,4.6231,4.6214,4.6206,4.62,4.6191,4.62,4.6193,4.6207,4.6213,4.6217,4.6219,4.6224,4.623,4.6165,4.6165,4.6165,0,0,4.6382,4.6363,4.6363,4.6344,4.633,4.6328,4.6295,4.6293,4.629,4.6251,4.625,4.6234,4.6213,4.6218,4.6219,4.6206,4.6236,4.622,4.6225,4.6224,4.6228,4.6234,4.6239,4.6167,4.6167,4.6167,0,0,4.642,4.6406,4.6412,4.6399,4.6379,4.636,4.6362,4.6335,4.6324,4.6322,4.6294,4.6289,4.6275,4.6262,4.6253,4.6288,4.6266,4.6286,4.6315,4.632,4.6326,4.633,4.6344,4.6349,4.6288,4.6288,4.6288,0,4.6449,4.6445,4.6417,4.6417,4.641,4.6376,4.6382,4.6371,4.6348,4.6344,4.633,4.6312,4.6295,4.6298,4.6307,4.63,4.6301,4.6289,4.6327,4.6331,4.6335,4.6348,4.6353,4.6291,4.629,4.629,4.629,0,4.6482,4.6479,4.6486,4.6468,4.6461,4.6464,4.6437,4.6433,4.6415,4.6397,4.6397,4.6376,4.6362,4.6361,4.6342,4.6361,4.6353,4.6334,4.6308,4.6344,4.6356,4.636,4.6294,4.6294,4.6293,4.6292,0,0,4.6546,4.6513,4.6517,4.6508,4.6484,4.6481,4.6483,4.6471,4.6469,4.6455,4.6456,4.6445,4.6428,4.6418,4.6397,4.6402,4.6433,4.6382,4.6381,4.6393,4.6453,4.6469,4.6475,4.6418,4.6419,4.6419,4.6455,0,4.6581,4.6583,4.6559,4.6567,4.6565,4.6533,4.6535,4.652,4.6504,4.6499,4.648,4.6474,4.6451,4.6445,4.6448,4.6428,4.6445,4.6425,4.6418,4.6418,4.6425,4.648,4.6496,4.6531,4.6459,4.646,4.6461,0,4.6621,4.6612,4.662,4.6598,4.6596,4.6598,4.6585,4.6581,4.6564,4.6552,4.6542,4.652,4.6519,4.6496,4.6495,4.6483,4.6479,4.6469,4.6469,4.6468,4.6442,4.6481,4.6541,4.6547,4.6467,4.6466,4.6466,0,4.6669,4.6657,4.6662,4.6655,4.6628,4.6631,4.662,4.6602,4.6597,4.6585,4.6582,4.657,4.6564,4.6556,4.6531,4.6515,4.6534,4.6507,4.6524,4.6524,4.6529,4.6529,4.659,4.6525,4.6525,4.6525,4.6525,0,4.671,4.6717,4.6683,4.6686,4.6692,4.6664,4.6672,4.6657,4.6642,4.6641,4.6612,4.6612,4.6579,4.6574,4.6555,4.6558,4.6555,4.6545,4.654,4.6548,4.655,4.6545,4.6542,4.6526,4.6526,4.6526,4.6526,0,4.6765,4.6742,4.6745,4.672,4.6714,4.672,4.6698,4.67,4.6682,4.6682,4.668,4.6652,4.6646,4.662,4.6607,4.6594,4.6604,4.6593,4.661,4.6607,4.6625,4.6624,4.6686,4.6693,4.6623,4.6624,4.6625,0,4.6793,4.6798,4.6774,4.6772,4.6763,4.6759,4.6755,4.6727,4.6723,4.6705,4.6709,4.6701,4.6693,4.6684,4.6663,4.6653,4.6642,4.6665,4.664,4.6649,4.6644,4.6644,4.6645,4.667,4.6671,4.6672,4.6672,0,4.6846,4.6835,4.683,4.6821,4.6816,4.6807,4.6796,4.6796,4.6766,4.6763,4.6757,4.6751,4.6739,4.6732,4.6719,4.6706,4.6685,4.668,4.6684,4.6692,4.6703,4.6698,4.6625,4.6679,4.6678,4.6678,4.6677,4.6677,4.6889,4.6892,4.6877,4.6872,4.6861,4.6852,4.6853,4.6836,4.6831,4.6821,4.6804,4.6801,4.6785,4.6765,4.6755,4.6752,4.6739,4.6744,4.6745,4.6747,4.6752,4.6703,4.6749,4.6749,4.6749,4.6749,4.6748,0,4.6942,4.693,4.6926,4.6913,4.691,4.689,4.6878,4.6876,4.6874,4.6861,4.6855,4.6849,4.6842,4.682,4.6811,4.6813,4.6802,4.6811,4.6811,4.6809,4.6763,4.6761,4.682,4.682,4.682,4.682,4.682,4.682,4.6969,4.6974,4.6961,4.6961,4.6949,4.6947,4.6942,4.6933,4.6923,4.6918,4.6913,4.6899,4.6883,4.6873,4.6866,4.686,4.6858,4.687,4.6861,4.6819,4.6812,4.6805,4.6804,4.687,4.687,4.6907,4.6907,4.6908]}]]